User: anonymous   Login
Location: C.E.K. Mees Observatory
(42.7003°N, 77.4088°W)
Time: 21:52:43
(UTC-05:00)
Language:

ISS - Orbit

View from above orbital plane
View from above orbital plane
View from above satellite
View from above satellite

Ground track
Ground track

The orbit data is extracted from the following two-line orbital elements,

1 25544U 98067A   18053.55158377  .00016717  00000-0  10270-3 0  9016
2 25544  51.6366 230.2018 0002952 123.0133 237.1303 15.54105474 20687
Epoch (UTC): 22 February 2018 13:14:16
Eccentricity: 0.0002952
inclination: 51.6366°
perigee height: 403 km
apogee height: 407 km
right ascension of ascending node: 230.2018°
argument of perigee: 123.0133°
revolutions per day: 15.54105474
mean anomaly at epoch: 237.1303°
orbit number at epoch: 2068

The dashed part of the orbit path shows where the satellite is in the earth's shadow,  

DLR